Wind_Speed
11 9 7 6 5 3 0 1 3 4 5 5 5 5 5 5 4 5 6 7 8 9 10 10 9 8 7 7 6 5 4 3 4 5 5 5 6 7 8 9 10 12 14
15 12 11 9 8 6 3 2 3 3 4 5 7 7 6 6 5 5 7 7 9 9 10 11 10 10 10 9 9 8 7 6 6 5 6 5 5 5 6 7 8 9 11
18 14 13 12 10 9 7 6 4 3 5 6 8 8 8 7 7 6 7 7 9 10 12 11 11 10 10 11 10 9 9 8 7 6 6 5 5 5 5 6 7 8 9
20 17 15 14 14 12 11 8 6 5 6 7 9 10 11 10 9 7 7 9 10 11 13 13 12 11 11 11 11 10 10 9 9 8 8 7 7 7 6 5 6 7 8
21 19 16 16 16 15 14 10 8 7 8 10 10 11 12 12 12 11 9 10 11 11 13 14 14 13 12 11 10 10 11 10 10 9 9 9 8 8 8 7 7 7 7
22 21 19 18 19 18 16 13 11 10 11 12 12 13 13 13 13 12 12 13 13 13 14 14 14 13 13 12 12 10 10 11 11 11 11 11 11 10 10 10 9 7 7
23 21 21 21 20 19 18 16 14 14 14 13 13 14 14 13 13 12 12 12 12 12 11 11 10 11 10 10 10 10 10 11 12 13 12 13 13 13 13 12 12 10 9
24 23 23 23 22 22 20 19 18 17 16 15 14 14 14 13 14 12 10 8 8 7 7 7 8 10 10 10 10 11 12 13 13 14 15 15 16 15 15 14 14 13 11
25 25 25 25 24 24 23 21 20 19 17 16 15 15 15 13 12 9 8 7 6 7 6 7 9 10 11 12 12 11 12 14 15 16 17 17 18 19 18 17 16 13 12
26 26 26 26 26 25 25 24 22 20 18 16 17 15 16 14 12 10 9 7 10 9 9 9 11 11 12 13 12 12 12 13 14 15 17 18 18 18 18 17 15 14 14
26 26 27 26 26 27 27 26 24 21 19 18 18 16 16 15 14 12 10 9 10 10 10 10 11 12 13 14 15 14 15 15 14 15 15 16 17 16 16 16 16 16 16
27 26 25 25 26 28 28 27 25 22 20 19 19 19 18 16 15 14 12 11 12 13 14 14 13 14 14 15 15 16 16 16 16 16 16 17 17 17 18 18 18 18 18
27 25 26 27 28 30 31 29 27 23 21 20 21 19 17 16 16 15 15 16 17 17 17 17 16 17 18 17 17 16 17 17 18 17 17 17 18 19 20 20 20 19 19
31 28 26 29 30 32 31 29 30 25 22 22 21 20 18 18 17 16 18 17 19 19 19 20 19 19 19 19 19 19 19 19 19 20 21 21 20 20 19 19 19 20 21
29 26 31 31 29 30 30 35 31 27 24 23 23 21 20 18 18 18 18 19 22 22 23 23 22 21 21 21 21 20 21 21 21 21 22 21 20 19 20 21 21 23 24
34 32 31 37 31 32 33 34 31 27 27 27 25 22 23 22 21 22 22 22 24 25 24 24 26 24 23 22 23 22 23 22 21 20 21 22 22 23 24 24 26 27 28
32 32 38 26 38 40 37 38 33 33 31 29 27 25 25 24 25 24 23 25 25 22 22 24 27 25 26 24 24 26 25 25 25 24 25 26 27 29 30 30 30 31 31
33 30 29 30 27 45 42 44 41 33 34 31 29 27 27 27 28 26 26 25 24 25 25 26 27 26 27 27 28 27 29 28 29 28 28 28 28 29 31 33 34 34 35
40 33 30 27 30 35 39 39 39 35 35 33 31 30 29 28 29 28 29 28 26 24 21 22 24 27 26 25 27 27 27 27 28 30 31 33 33 36 36 37 37 38 38
38 39 37 30 29 34 32 47 40 36 37 34 32 32 32 29 29 30 30 28 28 27 26 23 26 26 25 26 27 27 29 31 33 34 33 33 33 35 38 39 41 42 42
38 36 34 31 31 31 42 43 38 34 35 35 37 38 32 31 32 33 32 31 29 29 28 27 28 29 28 28 30 33 34 34 32 32 32 36 37 38 40 42 43 44 45
37 36 35 31 32 33 48 42 34 34 38 40 39 41 38 36 35 34 36 36 35 34 32 33 35 33 32 31 31 31 34 34 36 36 36 38 40 42 44 46 47 48 49
41 39 38 43 41 38 39 36 37 35 41 42 37 36 39 37 37 40 41 37 35 36 37 39 36 39 34 32 28 29 31 34 37 39 41 43 45 47 47 48 51 52 53
39 39 39 35 37 40 38 32 41 30 26 31 36 34 39 38 40 50 43 38 43 38 37 35 34 25 22 26 31 34 36 39 41 43 46 48 49 50 51 54 56 57 57
37 37 37 38 34 34 34 32 26 26 31 32 32 32 46 36 39 42 37 39 34 37 40 31 18 22 25 32 36 39 40 43 44 47 50 52 52 53 55 56 56 57 59
36 38 36 37 33 34 29 30 27 29 28 36 41 39 45 53 43 40 30 30 17 12 13 16 21 28 33 34 39 42 43 46 49 50 52 53 54 56 59 62 64 66 68
Wind_Direction
240 241 238 229 220 207 169 26 12 10 5 357 350 340 332 329 339 331 310 293 285 282 278 275 272 271 270 271 275 278 288 310 331 342 348 352 358 0 359 2 2 4 2
237 240 240 231 225 225 221 268 316 326 339 337 331 333 325 318 315 307 312 315 299 291 285 284 281 278 276 273 274 278 286 294 308 323 328 336 343 344 347 354 356 358 358
241 239 243 241 231 231 230 241 255 287 321 327 323 315 311 309 301 306 302 304 306 303 296 292 291 289 284 279 274 273 277 282 289 299 309 321 322 325 331 338 345 348 352
247 243 241 241 237 233 233 240 252 278 307 318 322 320 312 297 289 284 290 294 292 302 302 300 295 291 287 284 283 279 278 281 285 294 299 309 312 316 315 320 324 329 340
242 240 238 239 238 234 235 243 250 274 296 305 307 304 308 301 288 280 274 278 287 293 293 296 297 294 290 287 286 287 285 285 290 292 292 296 299 302 306 311 315 319 326
241 240 238 233 235 232 233 239 249 263 278 292 301 302 296 304 293 282 282 281 280 280 281 284 290 293 291 290 291 289 287 288 287 286 289 295 298 301 304 303 304 301 302
236 236 234 233 234 233 232 239 247 257 271 287 297 296 292 293 289 278 278 281 282 282 282 284 281 281 286 288 288 287 287 286 286 285 286 288 292 296 299 301 300 294 288
230 232 233 233 230 232 232 238 247 257 268 282 290 290 286 290 291 289 281 278 285 285 294 294 288 287 289 286 285 286 288 287 286 286 286 287 287 290 293 292 290 290 287
228 227 230 232 230 231 233 238 246 256 268 282 286 288 282 281 281 285 276 263 255 272 289 298 299 299 299 299 295 291 293 293 291 289 288 288 290 292 291 288 288 285 283
227 225 226 228 232 234 237 240 246 252 263 274 280 282 279 279 277 276 278 284 286 289 293 304 307 305 303 303 303 303 298 291 288 288 288 287 286 286 286 287 286 282 280
224 227 228 229 234 238 239 241 242 247 257 265 270 271 270 273 274 275 276 282 283 286 289 292 295 297 293 293 290 289 289 286 284 284 284 284 285 283 281 281 282 284 287
225 225 231 237 239 242 242 241 243 247 252 261 266 267 267 269 269 274 276 277 276 282 286 288 290 289 289 286 283 284 282 280 280 280 283 284 285 286 286 285 283 283 284
234 238 240 239 239 241 241 241 243 244 250 255 258 259 262 267 270 274 278 279 279 277 279 280 281 282 280 277 276 276 279 279 281 280 278 278 279 280 281 281 283 285 285
243 243 246 239 237 237 237 240 245 245 248 254 259 261 263 265 266 271 273 279 281 283 281 280 279 278 279 278 275 274 273 273 276 276 278 278 276 274 273 276 281 283 283
237 248 251 230 231 231 236 245 242 244 248 253 255 255 256 259 264 269 275 279 281 282 282 281 279 276 277 276 273 273 275 276 273 274 276 275 273 274 277 279 281 284 287
247 240 257 219 221 231 235 237 241 246 251 252 252 255 259 261 265 268 271 275 276 276 277 276 275 274 273 272 273 273 269 267 266 268 270 273 274 277 281 283 284 285 287
239 235 236 236 228 227 226 232 241 248 247 251 254 256 261 266 267 271 272 272 268 270 272 275 271 273 272 271 270 268 264 263 265 268 270 274 275 277 281 285 287 289 289
235 234 234 239 242 228 233 238 234 235 247 250 255 257 258 263 268 269 266 272 266 263 265 264 269 270 269 271 270 267 263 264 266 268 273 277 278 280 283 284 286 286 287
234 232 231 227 232 229 228 225 228 233 244 251 255 257 260 264 264 269 267 267 263 257 258 261 264 263 266 271 271 267 266 268 268 271 273 276 281 283 283 284 285 285 284
232 233 235 237 241 248 238 232 229 236 248 252 252 256 263 261 266 262 263 261 256 258 264 266 266 261 261 263 266 267 265 265 267 272 276 277 280 281 281 282 282 282 282
228 231 237 238 247 242 233 226 237 238 248 250 256 261 259 261 268 270 269 263 264 260 260 260 258 259 262 268 271 272 271 272 274 276 279 281 281 283 284 285 284 283 282
224 231 230 239 241 246 228 230 242 240 247 254 258 256 260 266 271 270 262 259 259 262 260 255 252 251 260 267 268 270 274 277 277 278 281 283 285 284 283 283 282 282 282
227 230 237 243 237 241 229 237 240 242 252 253 252 258 263 266 263 263 262 263 259 259 258 255 258 253 250 265 273 273 273 273 276 278 279 281 281 281 280 279 281 282 281
218 223 229 240 240 244 248 254 250 257 242 245 243 253 252 263 259 266 260 260 274 263 264 255 260 263 274 270 268 271 275 277 279 281 283 285 285 284 283 283 283 282 281
208 212 219 234 243 244 251 237 247 239 248 241 254 254 251 260 258 274 255 268 258 275 252 258 255 261 263 268 272 277 279 282 282 284 284 284 284 283 282 282 280 280 280
204 206 217 227 244 247 247 255 260 256 260 254 262 270 265 253 257 257 263 250 247 248 260 261 264 266 277 275 277 279 281 281 282 284 285 285 284 284 283 283 283 282 281
Height
5890 5891 5892 5893 5893 5893 5893 5894 5894 5895 5895 5895 5895 5895 5895 5895 5895 5895 5895 5895 5895 5895 5895 5895 5896 5896 5897 5897 5897 5897 5897 5897 5897 5896 5895 5895 5894 5893 5892 5890 5888 5886 5884
5887 5888 5890 5891 5892 5892 5892 5892 5893 5893 5894 5894 5894 5894 5894 5894 5894 5894 5893 5893 5893 5893 5893 5893 5893 5894 5894 5895 5895 5895 5895 5895 5895 5895 5894 5894 5894 5893 5892 5891 5889 5887 5885
5885 5886 5888 5889 5890 5890 5890 5891 5891 5892 5892 5892 5892 5892 5892 5892 5892 5892 5892 5892 5891 5892 5891 5891 5891 5892 5892 5892 5893 5893 5893 5894 5894 5894 5893 5893 5893 5892 5892 5890 5889 5888 5886
5883 5883 5885 5887 5888 5889 5889 5889 5889 5890 5890 5890 5890 5890 5890 5890 5890 5890 5890 5890 5890 5890 5890 5889 5890 5890 5891 5891 5891 5891 5891 5892 5892 5892 5892 5891 5891 5891 5891 5890 5889 5888 5886
5878 5881 5881 5884 5885 5886 5887 5887 5887 5888 5888 5888 5888 5888 5887 5887 5888 5888 5888 5888 5887 5888 5888 5888 5888 5888 5888 5888 5889 5889 5889 5890 5890 5890 5890 5890 5890 5889 5889 5889 5889 5888 5886
5874 5876 5878 5879 5881 5882 5884 5885 5886 5885 5886 5886 5886 5886 5886 5885 5885 5885 5885 5885 5885 5885 5885 5885 5886 5886 5886 5886 5886 5887 5887 5888 5888 5888 5888 5889 5888 5888 5887 5887 5887 5886 5886
5869 5872 5873 5876 5877 5879 5880 5882 5882 5883 5884 5884 5883 5884 5883 5883 5882 5881 5881 5881 5881 5882 5882 5883 5883 5883 5883 5884 5884 5885 5885 5886 5886 5886 5886 5886 5886 5886 5885 5885 5885 5884 5884
5864 5868 5869 5871 5873 5875 5877 5878 5879 5880 5881 5881 5881 5881 5880 5880 5880 5879 5878 5879 5879 5879 5880 5881 5881 5881 5881 5881 5882 5882 5883 5883 5884 5884 5884 5884 5883 5883 5883 5882 5882 5882 5882
5860 5863 5865 5867 5868 5871 5873 5874 5876 5877 5878 5878 5878 5878 5878 5877 5878 5877 5877 5877 5877 5877 5877 5878 5879 5879 5880 5880 5880 5880 5880 5881 5881 5881 5881 5881 5881 5880 5880 5880 5879 5879 5878
5855 5857 5860 5862 5865 5867 5869 5870 5871 5873 5874 5874 5875 5874 5876 5876 5875 5875 5875 5874 5877 5876 5876 5876 5878 5878 5878 5879 5878 5879 5878 5878 5877 5878 5878 5878 5878 5877 5877 5877 5876 5876 5875
5849 5852 5855 5858 5861 5863 5865 5866 5867 5869 5869 5870 5870 5871 5872 5873 5873 5872 5872 5872 5874 5874 5873 5873 5874 5875 5874 5875 5875 5875 5875 5875 5875 5874 5873 5874 5874 5874 5874 5874 5874 5873 5873
5843 5846 5850 5854 5856 5859 5860 5862 5864 5864 5864 5865 5866 5867 5868 5869 5870 5870 5870 5869 5871 5871 5871 5871 5870 5870 5870 5870 5870 5871 5871 5871 5871 5870 5870 5870 5870 5871 5871 5871 5870 5870 5870
5838 5842 5845 5848 5852 5854 5856 5857 5859 5859 5859 5861 5862 5863 5863 5865 5866 5865 5866 5866 5867 5867 5867 5867 5866 5866 5867 5866 5866 5866 5866 5867 5867 5867 5866 5866 5866 5866 5866 5866 5866 5866 5866
5831 5836 5839 5843 5846 5848 5850 5852 5855 5855 5855 5857 5859 5860 5860 5861 5861 5861 5861 5861 5863 5863 5863 5863 5861 5861 5862 5862 5862 5862 5862 5861 5862 5863 5863 5862 5862 5861 5861 5862 5862 5863 5862
5826 5829 5832 5836 5840 5843 5844 5847 5849 5850 5851 5852 5854 5854 5855 5855 5855 5855 5856 5856 5858 5857 5857 5858 5857 5857 5856 5856 5856 5857 5857 5858 5857 5857 5858 5858 5858 5858 5858 5858 5858 5858 5857
5819 5824 5825 5827 5832 5837 5839 5840 5844 5845 5846 5848 5849 5849 5850 5850 5850 5850 5850 5850 5851 5851 5850 5850 5852 5851 5851 5850 5850 5850 5851 5852 5853 5852 5852 5853 5853 5853 5853 5852 5853 5853 5852
5814 5815 5819 5822 5825 5827 5831 5833 5837 5839 5840 5841 5843 5843 5844 5844 5845 5845 5844 5844 5844 5843 5843 5843 5844 5845 5846 5844 5844 5844 5844 5845 5846 5847 5847 5847 5846 5846 5846 5845 5845 5846 5845
5804 5810 5812 5815 5819 5822 5824 5826 5828 5831 5833 5836 5837 5837 5837 5838 5840 5839 5839 5839 5839 5837 5835 5836 5837 5838 5838 5838 5839 5838 5839 5839 5840 5839 5840 5840 5839 5839 5839 5839 5838 5838 5837
5799 5803 5807 5809 5811 5815 5817 5820 5821 5824 5827 5829 5830 5830 5830 5831 5831 5832 5831 5832 5831 5830 5828 5828 5829 5830 5831 5832 5833 5833 5833 5834 5834 5833 5832 5833 5832 5833 5831 5831 5830 5829 5829
5791 5797 5800 5802 5803 5806 5809 5813 5815 5819 5821 5822 5823 5824 5823 5822 5823 5823 5823 5823 5823 5823 5823 5822 5824 5824 5824 5824 5825 5826 5826 5826 5826 5827 5826 5824 5824 5824 5823 5822 5820 5820 5819
5784 5787 5794 5797 5798 5800 5803 5806 5809 5814 5815 5815 5816 5816 5815 5813 5813 5816 5816 5816 5816 5816 5815 5816 5818 5819 5819 5819 5819 5819 5818 5818 5818 5818 5817 5816 5814 5812 5812 5811 5810 5809 5808
5778 5782 5787 5791 5792 5794 5795 5800 5803 5806 5807 5808 5808 5807 5808 5806 5805 5807 5807 5807 5807 5809 5809 5809 5810 5811 5812 5812 5812 5812 5812 5811 5809 5808 5807 5806 5805 5802 5801 5800 5798 5796 5794
5769 5776 5782 5786 5786 5788 5792 5795 5797 5798 5800 5801 5801 5800 5800 5799 5798 5797 5798 5798 5799 5800 5800 5799 5801 5802 5801 5803 5804 5806 5804 5803 5801 5799 5797 5795 5793 5791 5789 5787 5786 5784 5783
5762 5768 5773 5776 5778 5783 5786 5788 5790 5792 5791 5792 5792 5793 5791 5791 5786 5789 5789 5790 5791 5792 5793 5794 5794 5795 5796 5798 5798 5797 5795 5792 5790 5788 5786 5784 5780 5778 5775 5772 5770 5768 5766
5753 5760 5766 5769 5772 5775 5779 5778 5781 5783 5785 5785 5786 5785 5786 5783 5775 5781 5781 5781 5783 5783 5784 5785 5786 5789 5790 5790 5789 5786 5784 5782 5778 5776 5774 5771 5767 5764 5761 5758 5754 5752 5751
5748 5754 5759 5763 5766 5769 5772 5771 5775 5778 5778 5777 5777 5777 5774 5767 5770 5773 5774 5777 5777 5779 5780 5782 5783 5784 5783 5781 5778 5775 5772 5770 5766 5763 5760 5757 5753 5750 5746 5741 5737 5734 5732